{"data":{"norad_id":64899,"intl_designator":"2025-156A","name":"MICROCARB","alt_names":[],"object_type":"PAYLOAD","status":"ACTIVE","operator":null,"country":"FR","launch_date":"2025-07-26","launch_site_code":"FRGUI","launch_vehicle":null,"mission":null,"orbit_class":"UNKNOWN","rcs_meters":null,"size_class":null,"mass_kg":null,"dimensions":null,"purposes":["earth_obs"],"wikipedia_slug":null,"has_3d_model":false,"image_url":null,"decayed_at":null,"tle_current":{"epoch":"2026-09-19T22:07:52.768128Z","epoch_age_seconds":68230,"freshness":"FRESH","line1":"1 64899U 25156A   26262.92213852  .00000284  00000+0  52225-4 0  9998","line2":"2 64899  98.0094 338.6695 0016871 325.3494  34.6613 14.72850258 61913","mean_motion":14.72850258,"eccentricity":0.0016871,"inclination_deg":98.0094,"raan_deg":338.6695,"arg_perigee_deg":325.3494,"mean_anomaly_deg":34.6613,"bstar":5.2225e-5,"rev_number":6191,"period_min":97.769613182225,"perigee_km":640.12312529746,"apogee_km":663.84415836713,"semimajor_km":7030.1206418323,"source":"CELESTRAK","updated_at":"2026-09-20T09:00:33.982166Z"}}}